Time,TemperatureF,DewpointF,PressureIn,WindDirection,WindDirectionDegrees,WindSpeedMPH,WindSpeedGustMPH,Humidity,HourlyPrecipIn,Conditions,Clouds,dailyrainin,SoftwareType,DateUTC
2013-10-13 00:11:00,65.1,61.0,30.08,SSE,152,2.0,3.0,87,0.00,,,0.00,weatherlink.com 1.10,2013-10-13 04:11:00,
2013-10-13 00:26:00,65.3,61.0,30.08,SE,146,3.0,6.0,87,0.00,,,0.00,weatherlink.com 1.10,2013-10-13 04:26:00,
2013-10-13 00:42:00,65.2,61.0,30.08,SE,145,5.0,5.0,87,0.00,,,0.00,weatherlink.com 1.10,2013-10-13 04:42:00,
2013-10-13 00:57:00,65.2,61.0,30.08,SSE,150,3.0,5.0,87,0.00,,,0.00,weatherlink.com 1.10,2013-10-13 04:57:00,
2013-10-13 01:12:00,65.2,61.0,30.08,SSE,165,2.0,6.0,87,0.00,,,0.00,weatherlink.com 1.10,2013-10-13 05:12:00,
2013-10-13 01:27:00,65.3,61.0,30.08,SSE,153,3.0,6.0,86,0.00,,,0.00,weatherlink.com 1.10,2013-10-13 05:27:00,
2013-10-13 01:42:00,65.3,61.0,30.09,ESE,112,5.0,6.0,87,0.00,,,0.00,weatherlink.com 1.10,2013-10-13 05:42:00,
2013-10-13 01:57:00,65.0,61.0,30.09,SSE,156,4.0,7.0,87,0.00,,,0.00,weatherlink.com 1.10,2013-10-13 05:57:00,
2013-10-13 02:12:00,65.0,61.0,30.09,SE,143,3.0,5.0,87,0.00,,,0.00,weatherlink.com 1.10,2013-10-13 06:12:00,
2013-10-13 02:27:00,64.9,61.0,30.09,SSE,148,3.0,5.0,87,0.00,,,0.00,weatherlink.com 1.10,2013-10-13 06:27:00,
2013-10-13 02:42:00,64.8,61.0,30.09,SSE,152,2.0,5.0,88,0.00,,,0.00,weatherlink.com 1.10,2013-10-13 06:42:00,
2013-10-13 02:57:00,64.8,61.0,30.09,South,179,2.0,4.0,88,0.00,,,0.00,weatherlink.com 1.10,2013-10-13 06:57:00,
2013-10-13 03:12:00,64.5,61.0,30.10,SSW,195,2.0,4.0,88,0.00,,,0.00,weatherlink.com 1.10,2013-10-13 07:12:00,
2013-10-13 03:27:00,64.6,61.0,30.10,SSE,147,3.0,4.0,88,0.00,,,0.00,weatherlink.com 1.10,2013-10-13 07:27:00,
2013-10-13 03:42:00,64.5,61.0,30.10,SSE,156,4.0,5.0,88,0.00,,,0.00,weatherlink.com 1.10,2013-10-13 07:42:00,
2013-10-13 03:57:00,64.5,61.0,30.11,SSE,155,2.0,5.0,88,0.00,,,0.00,weatherlink.com 1.10,2013-10-13 07:57:00,
2013-10-13 04:12:00,64.3,61.0,30.11,SSE,165,2.0,5.0,89,0.00,,,0.00,weatherlink.com 1.10,2013-10-13 08:12:00,
2013-10-13 04:27:00,64.2,61.0,30.12,South,191,3.0,4.0,89,0.00,,,0.00,weatherlink.com 1.10,2013-10-13 08:27:00,
2013-10-13 04:42:00,63.9,61.0,30.12,South,185,2.0,3.0,89,0.00,,,0.00,weatherlink.com 1.10,2013-10-13 08:42:00,
2013-10-13 04:57:00,63.9,61.0,30.12,SSW,192,2.0,3.0,89,0.00,,,0.00,weatherlink.com 1.10,2013-10-13 08:57:00,
2013-10-13 05:12:00,63.8,60.0,30.13,WSW,245,2.0,6.0,88,0.00,,,0.00,weatherlink.com 1.10,2013-10-13 09:12:00,
2013-10-13 05:27:00,63.4,60.0,30.14,SSW,212,2.0,5.0,89,0.00,,,0.00,weatherlink.com 1.10,2013-10-13 09:27:00,
2013-10-13 05:42:00,63.0,60.0,30.14,SW,221,1.0,4.0,89,0.00,,,0.00,weatherlink.com 1.10,2013-10-13 09:42:00,
2013-10-13 05:57:00,62.5,60.0,30.15,SW,217,2.0,4.0,90,0.00,,,0.00,weatherlink.com 1.10,2013-10-13 09:57:00,
2013-10-13 06:12:00,61.8,59.0,30.15,SW,231,3.0,3.0,91,0.00,,,0.00,weatherlink.com 1.10,2013-10-13 10:12:00,
2013-10-13 06:27:00,61.2,59.0,30.15,SSW,212,1.0,3.0,92,0.00,,,0.00,weatherlink.com 1.10,2013-10-13 10:27:00,
2013-10-13 06:42:00,60.9,59.0,30.16,SSW,207,1.0,4.0,92,0.00,,,0.00,weatherlink.com 1.10,2013-10-13 10:42:00,
2013-10-13 06:57:00,60.6,59.0,30.17,SSW,210,2.0,3.0,93,0.00,,,0.00,weatherlink.com 1.10,2013-10-13 10:57:00,
2013-10-13 07:12:00,59.9,58.0,30.17,SW,235,4.0,4.0,94,0.00,,,0.00,weatherlink.com 1.10,2013-10-13 11:12:00,
2013-10-13 07:27:00,59.2,58.0,30.17,SW,219,1.0,3.0,95,0.00,,,0.00,weatherlink.com 1.10,2013-10-13 11:27:00,
2013-10-13 07:42:00,58.9,58.0,30.18,SW,225,2.0,3.0,95,0.00,,,0.00,weatherlink.com 1.10,2013-10-13 11:42:00,
2013-10-13 07:57:00,58.3,57.0,30.18,SW,224,2.0,2.0,95,0.00,,,0.00,weatherlink.com 1.10,2013-10-13 11:57:00,
2013-10-13 08:13:00,58.1,57.0,30.18,SW,233,1.0,2.0,97,0.00,,,0.00,weatherlink.com 1.10,2013-10-13 12:13:00,
2013-10-13 08:28:00,58.0,57.0,30.19,SW,221,1.0,3.0,97,0.00,,,0.00,weatherlink.com 1.10,2013-10-13 12:28:00,
2013-10-13 08:43:00,58.6,58.0,30.20,WSW,239,1.0,3.0,97,0.00,,,0.00,weatherlink.com 1.10,2013-10-13 12:43:00,
2013-10-13 08:58:00,59.9,59.0,30.19,WSW,246,3.0,3.0,98,0.00,,,0.00,weatherlink.com 1.10,2013-10-13 12:58:00,
2013-10-13 09:13:00,61.7,61.0,30.20,North,11,0.0,5.0,96,0.00,,,0.00,weatherlink.com 1.10,2013-10-13 13:13:00,
2013-10-13 09:28:00,62.9,60.0,30.20,West,264,5.0,11.0,91,0.00,,,0.00,weatherlink.com 1.10,2013-10-13 13:28:00,
2013-10-13 09:43:00,63.6,60.0,30.21,WNW,295,4.0,10.0,89,0.00,,,0.00,weatherlink.com 1.10,2013-10-13 13:43:00,
2013-10-13 09:58:00,64.1,61.0,30.21,NNW,332,4.0,9.0,88,0.00,,,0.00,weatherlink.com 1.10,2013-10-13 13:58:00,
2013-10-13 10:13:00,64.0,60.0,30.22,WNW,302,3.0,9.0,87,0.00,,,0.00,weatherlink.com 1.10,2013-10-13 14:13:00,
2013-10-13 10:28:00,63.7,60.0,30.23,West,262,1.0,9.0,87,0.00,,,0.00,weatherlink.com 1.10,2013-10-13 14:28:00,
2013-10-13 10:43:00,63.2,59.0,30.23,WNW,287,7.0,8.0,87,0.00,,,0.00,weatherlink.com 1.10,2013-10-13 14:43:00,
2013-10-13 10:58:00,63.0,57.0,30.24,WNW,300,6.0,11.0,82,0.00,,,0.00,weatherlink.com 1.10,2013-10-13 14:58:00,
2013-10-13 11:13:00,62.8,55.0,30.24,WNW,300,2.0,9.0,76,0.00,,,0.00,weatherlink.com 1.10,2013-10-13 15:13:00,
2013-10-13 11:28:00,62.6,55.0,30.25,NNW,330,4.0,11.0,76,0.00,,,0.00,weatherlink.com 1.10,2013-10-13 15:28:00,
2013-10-13 11:43:00,62.4,55.0,30.25,North,349,4.0,11.0,78,0.00,,,0.00,weatherlink.com 1.10,2013-10-13 15:43:00,
2013-10-13 11:58:00,62.1,55.0,30.25,NNW,328,4.0,9.0,78,0.00,,,0.00,weatherlink.com 1.10,2013-10-13 15:58:00,
2013-10-13 12:13:00,61.8,53.0,30.26,NW,319,5.0,11.0,72,0.00,,,0.00,weatherlink.com 1.10,2013-10-13 16:13:00,
2013-10-13 12:28:00,61.8,52.0,30.26,NW,325,5.0,8.0,70,0.00,,,0.00,weatherlink.com 1.10,2013-10-13 16:28:00,
2013-10-13 12:43:00,62.2,52.0,30.26,WNW,293,4.0,8.0,69,0.00,,,0.00,weatherlink.com 1.10,2013-10-13 16:43:00,
2013-10-13 12:58:00,62.2,51.0,30.26,NNW,340,3.0,8.0,68,0.00,,,0.00,weatherlink.com 1.10,2013-10-13 16:58:00,
2013-10-13 13:13:00,62.1,51.0,30.25,NW,306,5.0,8.0,66,0.00,,,0.00,weatherlink.com 1.10,2013-10-13 17:13:00,
2013-10-13 13:28:00,62.5,52.0,30.25,NW,311,7.0,7.0,68,0.00,,,0.00,weatherlink.com 1.10,2013-10-13 17:28:00,
2013-10-13 13:43:00,62.8,51.0,30.25,NNW,329,6.0,10.0,66,0.00,,,0.00,weatherlink.com 1.10,2013-10-13 17:43:00,
2013-10-13 13:58:00,63.6,51.0,30.24,NW,308,3.0,9.0,64,0.00,,,0.00,weatherlink.com 1.10,2013-10-13 17:58:00,
2013-10-13 14:13:00,64.1,52.0,30.24,WNW,300,3.0,7.0,66,0.00,,,0.00,weatherlink.com 1.10,2013-10-13 18:13:00,
2013-10-13 14:28:00,64.1,52.0,30.24,WNW,296,2.0,8.0,64,0.00,,,0.00,weatherlink.com 1.10,2013-10-13 18:28:00,
2013-10-13 14:43:00,64.6,51.0,30.24,NW,326,6.0,9.0,62,0.00,,,0.00,weatherlink.com 1.10,2013-10-13 18:43:00,
2013-10-13 14:58:00,64.8,51.0,30.24,NW,323,6.0,8.0,62,0.00,,,0.00,weatherlink.com 1.10,2013-10-13 18:58:00,
2013-10-13 15:13:00,65.4,51.0,30.24,SW,225,0.0,8.0,59,0.00,,,0.00,weatherlink.com 1.10,2013-10-13 19:13:00,
2013-10-13 15:28:00,66.0,49.0,30.24,WSW,257,1.0,8.0,54,0.00,,,0.00,weatherlink.com 1.10,2013-10-13 19:28:00,
2013-10-13 15:43:00,66.7,47.0,30.24,WSW,257,7.0,10.0,50,0.00,,,0.00,weatherlink.com 1.10,2013-10-13 19:43:00,
2013-10-13 15:58:00,67.3,48.0,30.24,WNW,294,3.0,7.0,51,0.00,,,0.00,weatherlink.com 1.10,2013-10-13 19:58:00,
2013-10-13 16:13:00,66.8,48.0,30.23,NNE,32,5.0,10.0,51,0.00,,,0.00,weatherlink.com 1.10,2013-10-13 20:13:00,
2013-10-13 16:28:00,66.5,47.0,30.24,NNW,328,5.0,9.0,50,0.00,,,0.00,weatherlink.com 1.10,2013-10-13 20:28:00,
2013-10-13 16:44:00,66.5,46.0,30.24,NW,312,5.0,9.0,48,0.00,,,0.00,weatherlink.com 1.10,2013-10-13 20:44:00,
2013-10-13 16:59:00,66.6,46.0,30.24,NW,318,2.0,10.0,47,0.00,,,0.00,weatherlink.com 1.10,2013-10-13 20:59:00,
2013-10-13 17:14:00,66.6,46.0,30.24,NW,311,2.0,6.0,48,0.00,,,0.00,weatherlink.com 1.10,2013-10-13 21:14:00,
2013-10-13 17:29:00,66.4,46.0,30.23,NNW,328,2.0,5.0,49,0.00,,,0.00,weatherlink.com 1.10,2013-10-13 21:29:00,
2013-10-13 17:44:00,65.9,47.0,30.23,NW,312,2.0,6.0,50,0.00,,,0.00,weatherlink.com 1.10,2013-10-13 21:44:00,
2013-10-13 17:59:00,65.8,47.0,30.24,NW,305,3.0,5.0,51,0.00,,,0.00,weatherlink.com 1.10,2013-10-13 21:59:00,
2013-10-13 18:14:00,65.3,48.0,30.23,WNW,295,1.0,4.0,53,0.00,,,0.00,weatherlink.com 1.10,2013-10-13 22:14:00,
2013-10-13 18:29:00,64.6,47.0,30.24,NW,315,1.0,4.0,53,0.00,,,0.00,weatherlink.com 1.10,2013-10-13 22:29:00,
2013-10-13 18:44:00,63.8,47.0,30.24,NNW,345,1.0,2.0,55,0.00,,,0.00,weatherlink.com 1.10,2013-10-13 22:44:00,
2013-10-13 18:59:00,62.2,47.0,30.24,NNW,332,0.0,1.0,57,0.00,,,0.00,weatherlink.com 1.10,2013-10-13 22:59:00,
2013-10-13 19:14:00,59.7,48.0,30.24,NNW,332,0.0,0.0,65,0.00,,,0.00,weatherlink.com 1.10,2013-10-13 23:14:00,
2013-10-13 19:29:00,58.0,47.0,30.25,NNW,332,0.0,0.0,67,0.00,,,0.00,weatherlink.com 1.10,2013-10-13 23:29:00,
2013-10-13 19:44:00,56.3,48.0,30.25,NNW,332,0.0,0.0,73,0.00,,,0.00,weatherlink.com 1.10,2013-10-13 23:44:00,
2013-10-13 19:59:00,55.0,48.0,30.25,SW,222,0.0,1.0,76,0.00,,,0.00,weatherlink.com 1.10,2013-10-13 23:59:00,
2013-10-13 20:14:00,54.0,48.0,30.25,SW,222,0.0,0.0,79,0.00,,,0.00,weatherlink.com 1.10,2013-10-14 00:14:00,
2013-10-13 20:29:00,53.4,48.0,30.25,SW,222,0.0,1.0,81,0.00,,,0.00,weatherlink.com 1.10,2013-10-14 00:29:00,
2013-10-13 20:44:00,52.6,48.0,30.26,SW,222,0.0,0.0,83,0.00,,,0.00,weatherlink.com 1.10,2013-10-14 00:44:00,
2013-10-13 20:59:00,51.7,47.0,30.26,South,188,1.0,1.0,85,0.00,,,0.00,weatherlink.com 1.10,2013-10-14 00:59:00,
2013-10-13 21:14:00,51.0,47.0,30.26,SW,217,1.0,1.0,87,0.00,,,0.00,weatherlink.com 1.10,2013-10-14 01:14:00,
2013-10-13 21:29:00,51.4,47.0,30.27,SW,218,1.0,1.0,85,0.00,,,0.00,weatherlink.com 1.10,2013-10-14 01:29:00,
2013-10-13 21:44:00,50.8,47.0,30.27,SW,218,0.0,0.0,85,0.00,,,0.00,weatherlink.com 1.10,2013-10-14 01:44:00,
2013-10-13 21:59:00,50.3,46.0,30.27,SW,218,0.0,0.0,86,0.00,,,0.00,weatherlink.com 1.10,2013-10-14 01:59:00,
2013-10-13 22:14:00,50.6,47.0,30.28,SE,139,0.0,1.0,86,0.00,,,0.00,weatherlink.com 1.10,2013-10-14 02:14:00,
2013-10-13 22:29:00,50.4,47.0,30.29,SSW,192,0.0,1.0,87,0.00,,,0.00,weatherlink.com 1.10,2013-10-14 02:29:00,
2013-10-13 22:44:00,50.4,46.0,30.28,SW,218,0.0,1.0,85,0.00,,,0.00,weatherlink.com 1.10,2013-10-14 02:44:00,
2013-10-13 22:59:00,50.3,47.0,30.28,SW,226,1.0,2.0,87,0.00,,,0.00,weatherlink.com 1.10,2013-10-14 02:59:00,
2013-10-13 23:14:00,50.0,47.0,30.28,SW,231,0.0,1.0,88,0.00,,,0.00,weatherlink.com 1.10,2013-10-14 03:14:00,
2013-10-13 23:29:00,51.4,48.0,30.28,SW,233,0.0,1.0,88,0.00,,,0.00,weatherlink.com 1.10,2013-10-14 03:29:00,
2013-10-13 23:44:00,49.1,46.0,30.28,SW,233,0.0,0.0,89,0.00,,,0.00,weatherlink.com 1.10,2013-10-14 03:44:00,
2013-10-13 23:59:00,49.2,47.0,30.29,WSW,239,1.0,1.0,93,0.00,,,0.00,weatherlink.com 1.10,2013-10-14 03:59:00,